Weather History for Pompano Beach, FL

Change the Weather History Date:

Friday, September 13, 2013

  Actual Average Record
Temperature  
Mean Temperature 80 °F -  
Max Temperature 88 °F 91 °F 96 °F (1988)
Min Temperature 75 °F 74 °F 65 °F (1977)
Cooling Degree Days 16    
Growing Degree Days 30 (Base 50)    
Moisture  
Dew Point 73 °F    
Average Humidity 80    
Maximum Humidity 94    
Minimum Humidity 61    
Precipitation  
Precipitation 0.00 in - - ()
Sea Level Pressure  
Sea Level Pressure 29.88 in    
Wind  
Wind Speed 4 mph (ESE)    
Max Wind Speed 10 mph    
Max Gust Speed -    
Visibility 10 miles    
Events Thunderstorm    
Averages and records for this station are not official NWS values.
T = Trace of Precipitation, MM = Missing Value Source: NWS Daily Summary

Daily Weather History Graph

Daily Weather History Graph

Search for Another Location

Airport:

Trip Planner

Search our weather history database for the weather conditions in past years. The results will help you decide how hot, cold, wet, or windy it might be!

Date:

Astronomy

Sep. 13, 2013 Rise Set
Actual Time 7:05 AM EDT 7:26 PM EDT
Civil Twilight 6:42 AM EDT 7:49 PM EDT
Nautical Twilight 6:15 AM EDT 8:16 PM EDT
Astronomical Twilight 5:47 AM EDT 8:44 PM EDT
Moon 2:51 PM EDT (9/13) 12:57 AM EDT (9/13)
Length of Visible Light 13h 07m
Length of Day
12h 21m
First Quarter, 61% of the Moon is Illuminated
Sep 13
First Quarter
Sep 19
Full
Sep 26
Last Quarter
Oct 4
New
Oct 11
First Quarter

Hourly Weather History & Observations

Time (EDT) Temp. Heat Index Dew Point Humidity Pressure Visibility Wind Dir Wind Speed Gust Speed Precip Events Conditions
12:53 AM 75.9 °F - 73.0 °F 91% 29.91 in 10.0 mi WNW 3.5 mph - N/A   Unknown
1:10 AM 78.8 °F - 73.4 °F 83% 29.90 in 10.0 mi Calm Calm - N/A Thunderstorm Unknown
1:25 AM 78.8 °F - 73.4 °F 83% 29.90 in 10.0 mi NW 3.5 mph - N/A   Unknown
1:53 AM 78.1 °F - 75.0 °F 90% 29.89 in 10.0 mi NW 3.5 mph - N/A   Unknown
2:53 AM 77.0 °F - 75.0 °F 94% 29.88 in 10.0 mi NNE 3.5 mph - N/A   Unknown
3:53 AM 77.0 °F - 73.9 °F 90% 29.88 in 10.0 mi North 4.6 mph - N/A   Unknown
4:53 AM 75.9 °F - 73.0 °F 91% 29.87 in 10.0 mi Calm Calm - N/A   Unknown
5:53 AM 75.9 °F - 73.0 °F 91% 29.87 in 10.0 mi Calm Calm - N/A   Unknown
6:53 AM 75.9 °F - 73.0 °F 91% 29.89 in 10.0 mi Calm Calm - N/A   Unknown
7:53 AM 77.0 °F - 73.9 °F 90% 29.90 in 10.0 mi Calm Calm - N/A   Partly Cloudy
8:53 AM 82.0 °F 88.6 °F 75.0 °F 79% 29.91 in 10.0 mi West 3.5 mph - N/A   Partly Cloudy
9:53 AM 84.0 °F 91.2 °F 73.9 °F 72% 29.91 in 10.0 mi SW 4.6 mph - N/A   Partly Cloudy
10:53 AM 84.9 °F 90.7 °F 72.0 °F 65% 29.91 in 10.0 mi Calm Calm - N/A   Scattered Clouds
11:53 AM - - - N/A% 29.91 in - North - - N/A   Unknown
12:53 PM - - - N/A% 29.90 in - North - - N/A   Unknown
1:53 PM - - - N/A% 29.87 in - North - - N/A   Unknown
2:53 PM - - - N/A% 29.86 in - North - - N/A   Unknown
3:53 PM - - - N/A% 29.84 in - North - - N/A   Unknown
4:53 PM - - - N/A% 29.83 in - ESE 8.1 mph - N/A   Unknown
5:53 PM 86.0 °F 91.5 °F 71.1 °F 61% 29.83 in 10.0 mi SE 10.4 mph - N/A   Clear
6:53 PM 86.0 °F 91.5 °F 71.1 °F 61% 29.84 in 10.0 mi ESE 9.2 mph - N/A   Partly Cloudy
7:53 PM 84.0 °F 91.2 °F 73.9 °F 72% 29.85 in 10.0 mi SE 6.9 mph - N/A   Partly Cloudy
8:53 PM 84.0 °F 91.2 °F 73.9 °F 72% 29.86 in 10.0 mi ESE 9.2 mph - N/A   Partly Cloudy
9:53 PM 84.0 °F 91.2 °F 73.9 °F 72% 29.87 in 10.0 mi ESE 6.9 mph - N/A   Clear
10:53 PM 82.9 °F 89.4 °F 73.9 °F 74% 29.88 in 10.0 mi SSE 5.8 mph - N/A   Unknown
11:53 PM 82.9 °F 88.8 °F 73.0 °F 72% 29.88 in 10.0 mi SE 5.8 mph - N/A   Unknown